Overview Statistics Trail Chart Weather Telemetry Raw packets
 

This is the latest recevied weather packets stored in our database for station/object S56VIL-11. If no packets are shown the sender has not sent any weather packets the latest 10 day(s).

<< 13 14 15 16 17 18 19 >>
Time Temp. Humidity Pressure Rain* Wind** Luminosity Snow
1788295191 19.44° C 60% 1033.5 hPa - - - -
1788294290 19.44° C 60% 1033.5 hPa - - - -
1788293390 20° C 60% 1033.5 hPa - - - -
1788292490 20° C 60% 1033.4 hPa - - - -
1788291590 20° C 60% 1033.3 hPa - - - -
1788290690 20.56° C 59% 1033.3 hPa - - - -
1788289790 20° C 60% 1033.2 hPa - - - -
1788288890 20° C 59% 1033.1 hPa - - - -
1788287990 20° C 59% 1033 hPa - - - -
1788287090 20° C 59% 1032.8 hPa - - - -
1788286190 20.56° C 59% 1032.8 hPa - - - -
1788285290 21.11° C 59% 1032.6 hPa - - - -
1788284390 21.11° C 59% 1032.4 hPa - - - -
1788283490 21.11° C 59% 1032.5 hPa - - - -
1788282590 21.67° C 59% 1032.5 hPa - - - -
1788281690 22.22° C 59% 1032.5 hPa - - - -
1788280790 23.89° C 58% 1032.5 hPa - - - -
1788279890 25.56° C 58% 1032.6 hPa - - - -
1788278990 25.56° C 57% 1032.6 hPa - - - -
1788278090 25° C 58% 1032.6 hPa - - - -
1788277190 25° C 57% 1032.8 hPa - - - -
1788276290 25° C 58% 1032.9 hPa - - - -
1788275389 25.56° C 58% 1032.9 hPa - - - -
1788274489 26.67° C 57% 1033 hPa - - - -
1788273589 26.11° C 58% 1033.1 hPa - - - -

* Rain since midnight (hover to see other rain measurements)
** Current wind speed in m/s (hover to see current wind gust speed)